Regional Weather Roundup
Issued by NWS

Home | Current Version | Previous Version | Graphics & Text | Print | Product List | Glossary On
Versions: 1 2 3 4 5 6 7 8 9 10 11 12 13 14 15 16 17 18 19 20 21 22 23 24 25 26 27 28 29 30 31 32 33 34 35 36 37 38 39 40 41 42 43 44 45 46 47 48 49 50
000
ASUS43 KBIS 262310
RWRND

NORTH DAKOTA REGIONAL WEATHER ROUNDUP
NATIONAL WEATHER SERVICE BISMARCK ND
600 PM CDT WED APR 26 2017

NOTE: "FAIR" INDICATES FEW OR NO CLOUDS BELOW 12,000 FEET WITH NO
SIGNIFICANT WEATHER AND/OR OBSTRUCTIONS TO VISIBILITY.


NDZ001>003-009>011-017-270000-
NORTHWEST NORTH DAKOTA

CITY           SKY/WX    TMP DP  RH WIND       PRES   REMARKS
WILLISTON      FAIR      52  21  29 NE10      29.77F
MINOT          FAIR      50  23  34 N15       29.77F
MINOT AFB      SUNNY     48  23  36 N15G21    29.77F
$$

NDZ018>021-031>035-040>046-270000-
SOUTHWEST NORTH DAKOTA

CITY           SKY/WX    TMP DP  RH WIND       PRES   REMARKS
BISMARCK       CLOUDY    45  28  51 NE14      29.76S
DICKINSON      FAIR      46  19  34 NE13G20   29.72F
GARRISON         N/A     47  23  38 NE10G20   29.75F
HETTINGER ARPT SUNNY     49  24  37 NE12      29.73F
$$

NDZ004>008-012>016-024-026-027-054-270000-
NORTHEAST NORTH DAKOTA

CITY           SKY/WX    TMP DP  RH WIND       PRES   REMARKS
GRAND FORKS    LGT SNOW  32  29  88 N17       29.77F FOG
GRND FRKS AFB  LGT SNOW  32  28  86 N13       29.78S FOG
DEVILS LAKE    CLOUDY    37  26  64 NE18      29.78F
$$

NDZ022-023-025-028>030-036>039-047>053-270000-
SOUTHEAST NORTH DAKOTA

CITY           SKY/WX    TMP DP  RH WIND       PRES   REMARKS
FARGO          LGT SNOW  30  28  92 N17       29.72S VSB 3/4 WCI  18
JAMESTOWN      CLOUDY    30  25  81 N14       29.76S WCI  19
$$





USA.gov is the U.S. government's official web portal to all federal, state and local government web resources and services.